When you browse on this site, cookies collect data to enhance your experience and personalize the content and advertising you see.
Visit our Privacy Policy to learn more. By continuing to use the site, you agree to this use of cookies and data.
  • In Czech Republic
  • List of Countries
  • For 7 days
  • Water Temperature
  • Satellite Maps
  • Weather Map
  • Weather Widgets
  • user-avatar
    Login

    Hourly Weather Bekescsaba

    Today, 16 January, Wednesday

    Time Temperature Precipitation Wind Pressure Humidity
    00:00 -1°C° 0.1 mm 6 mps 752 mmHg 76%
    01:00 0°C° 0 mm 3 mps 751 mmHg 84%
    02:00 -1°C° 0.1 mm 4 mps 751 mmHg 81%
    03:00 -1°C° 0.1 mm 6 mps 751 mmHg 79%
    04:00 -1°C° 0.1 mm 7 mps 751 mmHg 76%
    05:00 -1°C° 0.2 mm 7 mps 751 mmHg 78%
    06:00 -1°C° 0.2 mm 7 mps 752 mmHg 79%
    07:00 -1°C° 0 mm 6 mps 751 mmHg 81%
    08:00 0°C° 0.2 mm 5 mps 752 mmHg 83%
    09:00 0°C° 0.2 mm 5 mps 752 mmHg 86%
    10:00 0°C° 0.2 mm 4 mps 752 mmHg 89%
    11:00 0°C° 0.1 mm 4 mps 753 mmHg 91%
    12:00 +1°C° 0.1 mm 4 mps 753 mmHg 93%
    13:00 +1°C° 0.1 mm 4 mps 753 mmHg 96%
    14:00 +2°C° 0 mm 3 mps 753 mmHg 93%
    15:00 +1°C° 0 mm 3 mps 753 mmHg 91%
    16:00 +1°C° 0 mm 3 mps 753 mmHg 89%
    17:00 +1°C° 0 mm 3 mps 754 mmHg 88%
    18:00 0°C° 0 mm 3 mps 754 mmHg 88%
    19:00 0°C° 0 mm 3 mps 754 mmHg 88%
    20:00 -1°C° 0 mm 3 mps 754 mmHg 88%
    21:00 -2°C° 0 mm 4 mps 754 mmHg 88%
    22:00 -2°C° 0 mm 4 mps 754 mmHg 89%
    23:00 -2°C° 0 mm 4 mps 754 mmHg 88%

    Tomorrow, 17 January, Thursday

    Time Temperature Precipitation Wind Pressure Humidity
    00:00 -2°C° 0 mm 5 mps 754 mmHg 88%
    01:00 -2°C° 0 mm 5 mps 754 mmHg 87%
    02:00 -2°C° 0 mm 5 mps 754 mmHg 87%
    03:00 -2°C° 0 mm 5 mps 754 mmHg 86%
    04:00 -2°C° 0 mm 5 mps 754 mmHg 86%
    05:00 -2°C° 0 mm 5 mps 753 mmHg 85%
    06:00 -2°C° 0 mm 5 mps 753 mmHg 83%
    07:00 -2°C° 0 mm 5 mps 753 mmHg 82%
    08:00 -2°C° 0 mm 6 mps 754 mmHg 82%
    09:00 -1°C° 0 mm 6 mps 754 mmHg 81%
    10:00 -1°C° 0 mm 6 mps 754 mmHg 81%
    11:00 +1°C° 0 mm 6 mps 753 mmHg 83%
    12:00 +1°C° 0 mm 5 mps 753 mmHg 84%
    13:00 +1°C° 0 mm 5 mps 753 mmHg 86%
    14:00 +1°C° 0 mm 5 mps 753 mmHg 85%
    15:00 +1°C° 0 mm 5 mps 753 mmHg 84%
    16:00 +1°C° 0 mm 5 mps 752 mmHg 84%
    17:00 +1°C° 0 mm 5 mps 752 mmHg 83%
    18:00 +1°C° 0 mm 5 mps 752 mmHg 82%
    19:00 0°C° 0 mm 5 mps 752 mmHg 81%
    20:00 +1°C° 0 mm 5 mps 752 mmHg 82%
    21:00 +1°C° 0 mm 5 mps 752 mmHg 82%
    22:00 +1°C° 0 mm 6 mps 752 mmHg 83%
    23:00 +1°C° 0.5 mm 5 mps 752 mmHg 84%

    Day after tomorrow, 18 January, Friday

    Time Temperature Precipitation Wind Pressure Humidity
    00:00 0°C° 0.5 mm 5 mps 752 mmHg 86%
    01:00 0°C° 0.5 mm 4 mps 752 mmHg 87%
    02:00 0°C° 0.7 mm 4 mps 752 mmHg 88%
    03:00 0°C° 0.7 mm 4 mps 752 mmHg 89%
    04:00 0°C° 0.7 mm 4 mps 752 mmHg 90%
    05:00 0°C° 0.2 mm 4 mps 753 mmHg 91%
    06:00 +1°C° 0.2 mm 3 mps 753 mmHg 93%
    07:00 +2°C° 0.2 mm 3 mps 754 mmHg 94%
    08:00 +2°C° 0 mm 3 mps 754 mmHg 90%
    09:00 +1°C° 0 mm 4 mps 755 mmHg 86%
    10:00 +3°C° 0 mm 4 mps 756 mmHg 83%
    11:00 +3°C° 0 mm 4 mps 756 mmHg 80%
    12:00 +3°C° 0 mm 4 mps 757 mmHg 77%
    13:00 +1°C° 0 mm 4 mps 757 mmHg 74%
    14:00 +2°C° 0 mm 3 mps 757 mmHg 75%
    15:00 +1°C° 0 mm 3 mps 758 mmHg 75%
    16:00 +2°C° 0 mm 2 mps 758 mmHg 75%
    17:00 +1°C° 0 mm 2 mps 758 mmHg 76%
    18:00 +1°C° 0 mm 1 mps 759 mmHg 77%
    19:00 +1°C° 0 mm 1 mps 759 mmHg 78%
    20:00 +1°C° 0 mm 1 mps 759 mmHg 78%
    21:00 0°C° 0 mm 0 mps 759 mmHg 78%
    22:00 -1°C° 0 mm 0 mps 760 mmHg 79%
    23:00 -1°C° 0 mm 0 mps 760 mmHg 79%

    19 January, Saturday

    Time Temperature Precipitation Wind Pressure Humidity
    00:00 0°C° 0 mm 1 mps 760 mmHg 80%
    01:00 0°C° 0 mm 1 mps 759 mmHg 80%
    02:00 0°C° 0 mm 1 mps 759 mmHg 80%
    03:00 0°C° 0 mm 1 mps 759 mmHg 80%
    04:00 +1°C° 0 mm 1 mps 759 mmHg 80%
    05:00 +1°C° 0 mm 1 mps 759 mmHg 80%
    06:00 +1°C° 0 mm 1 mps 758 mmHg 79%
    07:00 +1°C° 0 mm 1 mps 758 mmHg 78%
    08:00 +1°C° 0 mm 1 mps 758 mmHg 78%
    09:00 +1°C° 0 mm 1 mps 758 mmHg 78%
    10:00 +1°C° 0 mm 1 mps 758 mmHg 78%
    11:00 +1°C° 0 mm 2 mps 758 mmHg 77%
    12:00 +1°C° 0 mm 2 mps 757 mmHg 76%
    13:00 +2°C° 0 mm 2 mps 757 mmHg 75%
    14:00 +1°C° 0 mm 2 mps 756 mmHg 77%
    15:00 +1°C° 0 mm 2 mps 756 mmHg 78%
    16:00 +1°C° 0 mm 2 mps 756 mmHg 80%
    17:00 +1°C° 0 mm 2 mps 755 mmHg 82%
    18:00 -1°C° 0 mm 2 mps 755 mmHg 83%
    19:00 -1°C° 0 mm 2 mps 755 mmHg 85%
    20:00 -1°C° 0.2 mm 2 mps 755 mmHg 85%
    21:00 +1°C° 0.2 mm 1 mps 755 mmHg 86%
    22:00 +2°C° 0.2 mm 1 mps 755 mmHg 87%
    23:00 +2°C° 0.1 mm 1 mps 754 mmHg 87%

    20 January, Sunday

    Time Temperature Precipitation Wind Pressure Humidity
    00:00 +1°C° 0.1 mm 1 mps 754 mmHg 88%
    01:00 +1°C° 0.1 mm 1 mps 754 mmHg 89%
    02:00 +1°C° 0 mm 1 mps 753 mmHg 89%
    03:00 +1°C° 0 mm 1 mps 753 mmHg 88%
    04:00 +1°C° 0 mm 1 mps 753 mmHg 88%
    05:00 +1°C° 0.2 mm 1 mps 753 mmHg 88%
    06:00 +1°C° 0.2 mm 1 mps 752 mmHg 87%
    07:00 +1°C° 0.2 mm 1 mps 752 mmHg 87%
    08:00 +2°C° 0.7 mm 1 mps 753 mmHg 89%
    09:00 +2°C° 0.7 mm 1 mps 753 mmHg 91%
    10:00 +2°C° 0.7 mm 1 mps 753 mmHg 93%
    11:00 +2°C° 0.7 mm 1 mps 753 mmHg 95%
    12:00 +2°C° 0.7 mm 1 mps 752 mmHg 97%
    13:00 +2°C° 0.7 mm 1 mps 752 mmHg 99%
    14:00 +2°C° 0.1 mm 1 mps 752 mmHg 98%
    15:00 +2°C° 0.1 mm 1 mps 752 mmHg 98%
    16:00 +2°C° 0.1 mm 1 mps 752 mmHg 98%
    17:00 +2°C° 0 mm 1 mps 753 mmHg 98%
    18:00 +2°C° 0 mm 1 mps 753 mmHg 98%
    19:00 +1°C° 0 mm 1 mps 753 mmHg 97%
    20:00 -1°C° 0 mm 2 mps 753 mmHg 97%
    21:00 -1°C° 0 mm 2 mps 754 mmHg 96%
    22:00 -1°C° 0 mm 2 mps 754 mmHg 96%
    23:00 -1°C° 0 mm 2 mps 754 mmHg 96%

    21 January, Monday

    Time Temperature Precipitation Wind Pressure Humidity
    00:00 -1°C° 0 mm 2 mps 754 mmHg 95%
    01:00 -1°C° 0 mm 2 mps 754 mmHg 95%
    02:00 +1°C° 0 mm 1 mps 755 mmHg 94%
    03:00 +1°C° 0 mm 1 mps 755 mmHg 94%
    04:00 +1°C° 0 mm 1 mps 755 mmHg 94%
    05:00 +1°C° 0 mm 1 mps 755 mmHg 93%
    06:00 +1°C° 0 mm 1 mps 756 mmHg 92%
    07:00 +1°C° 0 mm 1 mps 756 mmHg 92%
    08:00 +1°C° 0 mm 1 mps 757 mmHg 93%
    09:00 +2°C° 0 mm 1 mps 757 mmHg 94%
    10:00 +1°C° 0 mm 2 mps 758 mmHg 95%
    11:00 +1°C° 0 mm 2 mps 758 mmHg 91%
    12:00 +1°C° 0 mm 2 mps 758 mmHg 87%
    13:00 0°C° 0 mm 3 mps 758 mmHg 84%
    14:00 -1°C° 0 mm 3 mps 758 mmHg 84%
    15:00 -1°C° 0 mm 3 mps 758 mmHg 84%
    16:00 -2°C° 0 mm 3 mps 759 mmHg 85%
    17:00 -4°C° 0 mm 3 mps 759 mmHg 85%
    18:00 -4°C° 0 mm 4 mps 760 mmHg 85%
    19:00 -4°C° 0 mm 4 mps 760 mmHg 85%
    20:00 -5°C° 0 mm 4 mps 760 mmHg 83%
    21:00 -6°C° 0 mm 5 mps 761 mmHg 81%
    22:00 -6°C° 0 mm 5 mps 761 mmHg 78%
    23:00 -6°C° 0 mm 5 mps 761 mmHg 78%
    Show more